Flag Weather past 2 weeks in Pierre, South Dakota, U.S.A.

Now
37 °F

Overcast.


Feels Like: 28 °F
Forecast: 22 / 37 °F
Wind: 14 mph from Northwest

Location: Pierre Regional Airport

Current Time: Nov 23, 2014 at 1:25:20 AM

Latest Report: Nov 23, 2014 at 12:53 AM


Visibility: 10 mi

Pressure: 29.46 "Hg

Humidity: 82%

Dew point: 32 °F

Location of PierreLocation

Historic Weather in Pierre — Graph

°F

Pierre temperature yesterday

Maximum temperature yesterday: 44 °F (at 2:53 PM)
Minimum temperature yesterday: 19 °F (at 6:01 AM)
Average temperature yesterday: 33 °F

Past Weeks' High & Low Weather Summary

 TemperatureHumidityPressure
High52 °F (Nov 8, 3:53 PM)97% (Nov 9, 3:53 PM)30.72 "Hg (Nov 9, 3:53 PM)
Low-7 °F (Nov 14, 12:04 AM)43% (Nov 8, 2:53 PM)29.39 "Hg (Nov 22, 2:53 PM)
Average20 °F77%30.16 "Hg
* Reported Nov 7 11:53 PM — Nov 22 11:53 PM, Pierre, Weather by CustomWeather, © 2014

Note: Actual official high and low records may vary slightly from our data, if they occured in-between our weather recording intervals... More about our weather records

Advertising

Pierre weather history for previous 24 hours

 ConditionsComfort  
Time TempWeatherWind HumidityBarometerVisibility
11:53 PM
Nov 22
36 °FMostly cloudy.6 mph82%29.44 "Hg10 mi
10:53 PM37 °FMostly cloudy.No wind82%29.43 "Hg10 mi
9:53 PM37 °FMostly cloudy.No wind79%29.44 "Hg10 mi
8:53 PM39 °FPassing clouds.3 mph73%29.44 "Hg10 mi
7:53 PM41 °FClear.6 mph67%29.45 "Hg10 mi
6:53 PM40 °FPassing clouds.6 mph70%29.45 "Hg10 mi
5:53 PM37 °FPassing clouds.No wind76%29.45 "Hg10 mi
4:53 PM37 °FSunny.6 mph76%29.43 "Hg10 mi
3:53 PM42 °FSunny.No wind68%29.42 "Hg10 mi
2:53 PM44 °FSunny.No wind65%29.39 "Hg10 mi
1:53 PM43 °FSunny.3 mph62%29.42 "Hg10 mi
12:53 PM40 °FSunny.3 mph68%29.45 "Hg10 mi
11:53 AM37 °FSunny.6 mph73%29.49 "Hg10 mi
10:53 AM33 °FSunny.8 mph78%29.54 "Hg10 mi
9:53 AM30 °FSunny.7 mph85%29.58 "Hg10 mi
8:53 AM27 °FSunny.10 mph89%29.61 "Hg10 mi
8:02 AM23 °FIce fog.3 mph92%29.60 "Hg1 mi
6:59 AM19 °FIce fog.5 mph96%29.62 "Hg1 mi
6:01 AM19 °FIce fog.3 mph96%29.64 "Hg1 mi
4:53 AM25 °FIce fog.5 mph96%29.74 "Hg1 mi
3:53 AM25 °FClear.3 mph92%29.76 "Hg10 mi
2:53 AM29 °FClear.8 mph82%29.79 "Hg10 mi
1:53 AM31 °FClear.9 mph82%29.79 "Hg10 mi
Weather by CustomWeather, © 2014

See weather overviewHow to use our weather pages